This demonstration page uses our WeatherBlox Daily Observations layout. Learn more.

Left ArrowRight Arrow

Hourly Observations for June 2, 2015

Temp ( °F °C ) Dew Point ( °F °C ) Humidity (%) Winds ( mph kmh ) Pressure ( in mb ) Visibility ( mi km ) Precip ( " mm )
12:53 am 00:53 Cloudy 65 18.3 41 5 42 42 ENE 13 20 29.81 1010 10 16 0.00 0.00
1:53 am 01:53 Cloudy with Light Rain 60 15.6 47 8.3 62 62 E 7 11 29.85 1011 10 16 0.00 0.03
2:53 am 02:53 Cloudy with Light Rain 58 14.4 48 8.9 70 70 SE 15 24 29.86 1011 10 16 0.01 0.25
3:53 am 03:53 Cloudy with Light Rain 55 12.8 49 9.4 80 80 ESE 15 24 29.86 1011 8 13 0.05 1.27
4:53 am 04:53 Cloudy with Light Rain 54 12.2 50 10 87 87 ESE 12 19 29.85 1011 10 16 0.05 1.27
5:53 am 05:53 Cloudy with Light Rain 54 12.2 50 10 87 87 E 14 22 29.86 1011 10 16 0.03 0.76
6:53 am 06:53 Cloudy with Light Rain 54 12.2 49 9.4 83 83 E 13 20 29.87 1011 10 16 0.03 0.76
7:53 am 07:53 Cloudy 54 12.2 50 10 87 87 ENE 8 13 29.87 1012 10 16 0.02 0.51
8:53 am 08:53 Cloudy 56 13.3 49 9.4 77 77 ESE 14 22 29.87 1012 10 16 0.00 0.03
9:53 am 09:53 Cloudy 57 13.9 48 8.9 72 72 E 14 22 29.90 1013 10 16 0.00 0.00
10:53 am 10:53 Cloudy 57 13.9 49 9.4 74 74 E 16 26 29.90 1013 10 16 0.00 0.03
11:53 am 11:53 Cloudy with Light Rain 57 13.9 50 10 78 78 E 13 20 29.91 1013 10 16 0.00 0.03
12:53 pm 12:53 Cloudy with Light Rain 55 12.8 51 10.6 87 87 E 13 20 29.92 1013 9 14 0.03 0.76
1:53 pm 13:53 Cloudy with Light Rain 56 13.3 51 10.6 84 84 E 12 19 29.92 1013 10 16 0.00 0.03
2:53 pm 14:53 Cloudy 58 14.4 49 9.4 72 72 E 20 31 29.91 1013 10 16 0.00 0.03
3:53 pm 15:53 Cloudy 57 13.9 48 8.9 72 72 E 16 26 29.91 1013 10 16 0.00 0.00
4:53 pm 16:53 Cloudy 59 15 46 7.8 62 62 E 18 30 29.90 1012 10 16 0.00 0.03
5:53 pm 17:53 Cloudy with Light Rain 58 14.4 46 7.8 65 65 E 17 28 29.91 1013 10 16 0.00 0.03
6:53 pm 18:53 Cloudy 56 13.3 48 8.9 75 75 E 12 19 29.92 1013 10 16 0.00 0.03
7:53 pm 19:53 Cloudy 58 14.4 48 8.9 70 70 ESE 14 22 29.92 1013 10 16 0.00 0.00
8:53 pm 20:53 Cloudy with Light Rain 56 13.3 49 9.4 77 77 E 12 19 29.93 1014 10 16 0.00 0.03
9:53 pm 21:53 Cloudy 54 12.2 50 10 87 87 E 10 17 29.95 1014 10 16 0.00 0.03
10:53 pm 22:53 Cloudy 53 11.7 50 10 89 89 E 10 17 29.95 1014 10 16 0.00 0.03
11:53 pm 23:53 Cloudy 53 11.7 50 10 89 89 ENE 10 17 29.95 1014 10 16 0.00 0.00

Powered by AerisWeather